This demonstration page uses our WeatherBlox Daily Observations layout. Learn more.

Left ArrowRight Arrow

31.31129, -92.44514

Hourly Observations for October 30, 2015

Temp ( °F °C ) Dew Point ( °F °C ) Humidity (%) Winds ( mph kmh ) Pressure ( in mb ) Visibility ( mi km ) Precip ( " mm )
12:53 am 00:53 Clear 57 13.9 56 13.3 96 96 Calm 29.96 1015 8 13 0.00 0.00
1:53 am 01:53 Clear 56 13.3 55 12.8 97 97 Calm 29.97 1015 7 11 0.00 0.00
2:53 am 02:53 Clear 56 13.3 56 13.3 100 100 Calm 29.97 1015 7 11 0.00 0.00
3:53 am 03:53 Clear 59 15 56 13.3 90 90 ENE 7 11 29.96 1015 10 16 0.00 0.00
4:53 am 04:53 Clear 56 13.3 55 12.8 97 97 Calm 29.96 1014 9 14 0.00 0.00
5:53 am 05:53 Clear 60 15.6 55 12.8 84 84 E 7 11 29.94 1014 10 16 0.00 0.00
6:53 am 06:53 Clear 57 13.9 54 12.2 90 90 Calm 29.96 1015 10 16 0.00 0.00
7:53 am 07:53 Sunny 56 13.3 55 12.8 97 97 Calm 29.98 1015 8 13 0.00 0.00
8:53 am 08:53 Sunny 61 16.1 56 13.3 84 84 E 7 11 30.00 1016 9 14 0.00 0.00
9:53 am 09:53 Sunny 63 17.2 57 13.9 81 81 ESE 12 19 30.00 1016 10 16 0.00 0.00
10:53 am 10:53 Sunny 67 19.4 58 14.4 73 73 ESE 10 17 30.00 1016 10 16 0.00 0.00
11:53 am 11:53 Sunny 71 21.7 59 15 66 66 ESE 13 20 29.98 1015 10 16 0.00 0.00
12:53 pm 12:53 Sunny 72 22.2 60 15.6 66 66 ESE 12 19 29.96 1014 10 16 0.00 0.00
1:53 pm 13:53 Sunny 73 22.8 60 15.6 64 64 ESE 14 22 29.93 1014 9 14 0.00 0.00
2:53 pm 14:53 Partly Cloudy 73 22.8 60 15.6 64 64 ESE 14 22 29.92 1013 9 14 0.00 0.00
3:53 pm 15:53 Sunny 74 23.3 62 16.7 67 67 SE 12 19 29.91 1013 8 13 0.00 0.00
4:53 pm 16:53 Mostly Cloudy 74 23.3 62 16.7 67 67 ESE 13 20 29.89 1012 8 13 0.00 0.00
5:53 pm 17:53 Sunny with Light Rain 71 21.7 64 17.8 79 79 ESE 10 17 29.87 1012 7 11 0.00 0.03
6:53 pm 18:53 Cloudy with Light Rain 70 21.1 64 17.8 82 82 ESE 12 19 29.87 1011 9 14 0.00 0.03
7:53 pm 19:53 Clear 71 21.7 64 17.8 79 79 E 15 24 29.86 1011 9 14 0.00 0.03
8:53 pm 20:53 Mostly Clear 70 21.1 65 18.3 84 84 ESE 9 15 29.86 1011 9 14 0.00 0.03
9:53 pm 21:53 Mostly Cloudy 70 21.1 65 18.3 84 84 ESE 10 17 29.85 1011 8 13 0.00 0.00
10:53 pm 22:53 Partly Cloudy 69 20.6 64 17.8 84 84 ESE 13 20 29.83 1010 8 13 0.00 0.00
11:53 pm 23:53 Mostly Clear 69 20.6 65 18.3 87 87 SE 13 20 29.83 1010 8 13 0.00 0.00

Powered by AerisWeather